Hourly Data Report for October 16, 2014

All times are specified in Local Standard Time (LST). Add 1 hour to adjust for Daylight Saving Time where and when it is observed.

WINNIPEG A CS
MANITOBA

49°55'00.000" N
97°14'58.000" W
238.70 m
502S001
71849
XWG

Download Data

Hourly Data (October 2014)
Hourly Data Report for October 16, 2014
Temp Definition
°C
Dew Point Temp Definition
°C
Rel Hum Definition
%
Wind Dir Definition
10's deg

Wind Spd Definition
km/h
Visibility Definition
km
Stn Press Definition
kPa
Hmdx Definition


Wind Chill Definition


Weather Definition


TIME
00:00 12.7 2.7 51 15 21   97.44     LegendNANA
01:00 12.3 2.6 52 15 26   97.38     LegendNANA
02:00 11.9 2.9 54 15 25   97.28     LegendNANA
03:00 11.6 2.9 55 16 15   97.26     LegendNANA
04:00 11.5 2.6 54 14 17   97.20     LegendNANA
05:00 11.0 2.4 55 14 19   97.13     LegendNANA
06:00 9.3 2.2 61 15 13   97.18     LegendNANA
07:00 9.6 2.4 61 14 17   97.09     LegendNANA
08:00 11.0 3.1 58 13 14   97.06     LegendNANA
09:00 12.4 3.0 53 14 21   97.04     LegendNANA
10:00 14.1 3.8 50 16 14   97.04     LegendNANA
11:00 14.7 3.0 45 11 9   97.00     LegendNANA
12:00 14.3 2.4 45 8 8   97.04     LegendNANA
13:00 16.0 3.4 43 4 12   97.03     LegendNANA
14:00 16.3 3.5 42 3 17   97.07     LegendNANA
15:00 15.5 3.6 45 1 26   97.13     LegendNANA
16:00 14.3 3.2 47 1 30   97.24     LegendNANA
17:00 13.8 4.0 52 1 24   97.31     LegendNANA
18:00 12.4 5.3 62 36 25   97.43     LegendNANA
19:00 11.4 5.6 68 36 30   97.55     LegendNANA
20:00 9.8 5.3 74 35 35   97.67     LegendNANA
21:00 8.7 4.8 76 35 42   97.82     LegendNANA
22:00 8.1 4.4 77 36 35   97.91     LegendNANA
23:00 7.6 4.2 79 36 35   98.05     LegendNANA

Notes on Data Quality.

Legend

  • E = Estimated
  • M = Missing
  • NA = Not Available
  • ‡ = Partner data that is not subject to review by the National Climate Archives
Date modified: